Weather in Krasnovidovo

Russia / Moscow Oblast     55°35′02″N   35°52′25″E
В апреле 2022 года жителям России запретили посещать сайт meteo.paraplan.net по решению Генеральной прокуратуры. Аудитория сайта уменьшилась в 10 раз. Владельцы сайта не видят смысла в поддержке погодного сервера в таких условиях. Сайт будет закрыт в октябре.
temp.,
°C
wind,
m/s
gust,
m/s
humid.,
%
clouds,
%
prec.,
mm/h
press.,
hPa
HPBL,
m
25 september, sun
sun2500:00+6nw41096100 1.1 999736
03:00+6nw51096100 2.9 999669
06:00+6nw51197100 0.1 999567
09:00+6nw41097100 1.4 1001566
12:00+6wnw3697100 1.3 1002495
15:00+7wnw2597100 1.7 1003320
18:00+7wnw2596100 0.4 1005255
21:00+6wnw2696100 0.7 1006265
26 september, mon
mon2600:00+6w2698100 0.1 1007332
03:00+6w3797100 0.1 1008445
06:00+6w3797100 0.1 1008406
09:00+7w3794100 0.1 1009433
12:00+8w468792 0.1 1010627
15:00+9wnw457895 0.3 1011840
18:00+8w268469 0.0 1011257
21:00+7wsw2288100 0.0 101237
27 september, tue
tue2700:00+7wsw2486100 0.0 1011105
03:00+7wsw1287100 0.0 101148
06:00+7sw1189100 0.1 101119
09:00+8s1284100 0.1 1010158
12:00+10ssw2482100 0.8 1011260
15:00+10s258799 2.4 1011352
18:00+8se2594100 0.5 1011176
21:00+8ene399565 1.1 1011368
28 september, wed
wed2800:00+6e2797100 0.0 1010177
03:00+6e31194100 0.0 1009331
06:00+6ene41392100 0.1 1007567
09:00+6ene51396100 3.1 1005632
12:00+7e51297100 2.9 1003600
15:00+7e41098100 4.4 1002476
18:00+8e3999100 0.3 1001404
21:00+9e3899100 0.7 1001363
29 september, thu
thu2900:00+10se2799100 1.1 1002281
03:00+10sw3898100 2.1 1003442
06:00+8wsw499696 0.0 1006466
09:00+9wsw4789100 0.0 1008593
12:00+10wsw4683100 0.0 1011650
15:00+11wsw3578100 0.0 1013794
18:00+9sse1187100 0.0 101510
21:00+8sse2391100 0.0 101745